www.pogodaiklimat.ru

Погода и климат >> Архив погоды >> Нигер >> Zinder


ПОГОДА в Zinder

  • Прогноз погоды в Zinder
  • Монитор погоды в Zinder
  • Климат города

АРХИВ ПОГОДЫ в Zinder

Время (UTC), дата Ветер
(напр.,м/с)
 
Видим.   Явления Облачность Т
(С)
Тd
(С)
f
(%)
Тe
(С)
Тes
(С)
Комфортность P
(гПа)
Po
(гПа)
Тmin
(С)
Tmax
(С)
R
(мм)
R24
(мм)
S
(см)
21 15.04 СЗ 6 10 км 9/0
[Cs]
+32.0 -0.2 13 +29 +29 жарко 1008.4 959.4
00 16.04 СЗ 4 10 км 9/0
[Cs]
+30.5 -1.0 13 +27 +27 жарко 1008.2 959.4
03 16.04 С 10 10 км 9/0
[Cs]
+29.7 -0.5 14 +27 +27 жарко 1007.0 957.7
06 16.04 С 10 10 км 9/0
[Cs]
+28.3 -1.4 14 +26 +26 жарко 1008.1 958.9 +27.3
09 16.04 С 14 4000 м пыльный позёмок 9/0
[Cs]
+37.0 -5.1 7 +33 +33 жарко 1009.2 960.3
12 16.04 С 12 5000 м пыль 9/0
[Cs]
+40.0 -2.7 7 +36 +36 очень
жарко
1007.3 958.5
15 16.04 С 6 8000 м пыль 9/0
[Cs]
+41.0 +2.0 9 +37 +40 очень
жарко
1004.4 955.9
18 16.04 С 10 8000 м пыль 9/0
[Cs]
+38.0 -1.4 8 +34 +34 очень
жарко
1005.3 956.4 +41.5
21 16.04 С 8 8000 м пыль 9/0
[Cs]
+34.2 +0.5 12 +31 +31 жарко 1006.9 958.2
00 17.04 СЗ 6 8000 м пыль 9/0
[Cs]
+31.0 +2.3 16 +28 +28 жарко 1007.0 958.3
03 17.04 С 6 8000 м пыль 9/0
[Cs]
+28.0 +0.4 17 +26 +26 жарко 1006.0 957.2
06 17.04 С 8 8000 м пыль 9/0
[Cs]
+27.8 -1.4 15 +25 +25 комфорт 1007.4 958.3 +26.8
09 17.04 С 12 8000 м пыль 9/0
[Cs]
+36.0 -2.9 8 +32 +32 жарко 1008.6 959.8
12 17.04 С 10 8000 м пыль 9/0
[Cs]
+41.2 -5.4 5 +37 +38 очень
жарко
1006.6 958.0
15 17.04 В 4 10 км 9/0
[Cs]
+41.6 -0.3 7 +38 +42 очень
жарко
1004.3 955.6
18 17.04 З 4 10 км 9/0
[Cs]
+39.3 +1.1 9 +36 +36 очень
жарко
1004.3 955.4 +42.5
21 17.04 штиль 0 10 км 9/0
[Cs]
+33.0 +4.2 16 +30 +30 жарко 1006.9 958.1
00 18.04 С 6 10 км 9/0
[Cs]
+31.0 +1.5 15 +28 +28 жарко 1006.3 957.6
06 18.04 С 2 10 км 9/0
[Cs]
+25.5 +4.4 26 +25 +25 комфорт 1007.5 958.3 +25.2
09 18.04 ЮВ 8 10 км 9/0
[Cs]
+33.6 +2.2 14 +31 +33 жарко 1008.7 959.6
12 18.04 ЮВ 2 10 км 9/0
[Cs]
+39.2 +1.2 9 +35 +53 опасность
солнечного
удара
1007.1 958.4
15 18.04 С 2 10 км 9/0
[Ac cast Cs]
+41.5 -0.2 8 +38 +44 очень
жарко
1004.8 956.1
18 18.04 СВ 4 8000 м пыль 9/0
[Ac cast Cs]
+39.0 +4.4 12 +36 +36 очень
жарко
1005.4 956.3 +42.3
21 18.04 В 8 10 км 9/6 1200 м
[Sc Ci sp]
+36.3 +6.6 16 +34 +34 очень
жарко
1006.8 958.1
00 19.04 Ю 6 10 км 9/0
[Ac trans Cs]
+35.0 +9.7 21 +34 +34 очень
жарко
1007.0 958.6
03 19.04 Ю 12 10 км 8/0
[Cs]
+30.7 +17.4 45 +35 +35 очень
душно
1006.5 957.9
06 19.04 Ю 12 10 км 9/0
[Cs]
+29.0 +19.5 57 +35 +35 очень
душно
1007.7 958.8 +28.6
09 19.04 ЮЗ 16 10 км 9/0
[Ac cast Cs]
+34.3 +15.7 33 +36 +36 душно 1008.8 960.0
12 19.04 С 10 10 км 9/0
[Cs]
+40.8 +10.7 17 +37 +38 очень
жарко
1006.1 957.8
15 19.04 В 4 10 км 9/3 1200 м
[Cu med, cong Cs]
+41.5 +6.1 12 +39 +42 очень
жарко
1003.8 955.4
18 19.04 С 4 10 км 9/0
[Cs]
+39.0 +3.7 11 +36 +36 очень
жарко
1004.0 955.3 +42.2
21 19.04 С 4 10 км 9/0
[Cs]
+34.5 +8.8 21 +33 +33 жарко 1005.1 956.4
00 20.04 С 6 10 км 9/0
[Cs]
+31.5 +8.0 23 +30 +30 жарко 1004.9 956.2
03 20.04 С 4 10 км 9/0
[Cs]
+29.0 +8.0 27 +28 +28 жарко 1005.0 956.3
06 20.04 С 2 8000 м пыль 9/0
[Cs]
+31.0 +10.2 28 +31 +32 жарко 1006.2 957.5 +30.8
09 20.04 СВ 4 3500 м пыль 9/0
[Cs]
+37.0 +7.7 17 +35 +43 очень
жарко
1007.2 958.6
12 20.04 ЮВ 6 4000 м пыль 9/0
[Cs]
+40.5 +5.8 12 +38 +45 очень
жарко
1004.5 956.1
15 20.04 ЮЗ 2 6000 м пыль 9/0
[Cs]
+41.0 +6.7 13 +39 +45 очень
жарко
1002.1 953.8
18 20.04 С 4 4000 м пыль 9/0
[Cs]
+39.5 +4.9 12 +37 +37 очень
жарко
1002.9 955.4 +42.0
21 20.04 В 4 4500 м пыль 9/0
[Cs]
+34.3 +7.6 19 +32 +32 жарко 1004.9 956.4
00 21.04 ЮЗ 4 4500 м пыль 9/0
[Cs]
+30.0 +3.7 19 +28 +28 жарко 1004.7 956.1
03 21.04 штиль 0 4500 м пыль 9/0
[Cs]
+27.0 +5.6 25 +26 +26 жарко 1004.2 955.5
06 21.04 С 8 6000 м пыль 9/0
[Cs]
+28.5 -0.5 15 +26 +26 жарко 1005.9 957.1 +26.4
09 21.04 С 8 8000 м пыль 9/0
[Cs]
+36.0 -2.8 8 +32 +32 жарко 1006.8 958.1
12 21.04 Ю 4 10 км 9/0
[Cs]
+41.0 -4.0 6 +37 +49 очень
жарко
1005.1 956.5
15 21.04 В 2 10 км 9/0
[Cs]
+41.7 -4.4 5 +37 +44 очень
жарко
1002.9 954.2
18 21.04 штиль 0 7000 м пыль 9/0
[Cs]
+38.6 -1.5 8 +35 +35 очень
жарко
1003.7 954.9 +42.5
21 21.04 штиль 0 8000 м пыль 9/0
[Cs]
+32.8 +2.7 15 +30 +30 жарко 1005.6 956.8
00 22.04 СЗ 2 10 км 9/0
[Cs]
+30.0 +3.0 18 +28 +28 жарко 1005.4 956.8
03 22.04 С 2 10 км 9/0
[Cs]
+31.5 -6.9 8 +27 +27 жарко 1004.0 956.2
06 22.04 С 10 10 км 9/0
[Cs]
+29.0 -5.4 10 +26 +26 жарко 1006.3 957.4 +28.5
09 22.04 С 14 10 км 9/0
[Cs]
+37.5 -7.7 5 +33 +33 жарко 1007.3 958.6
12 22.04 С 8 10 км 9/0
[Cs]
+41.7 -8.9 4 +37 +40 очень
жарко
1005.2 956.6
15 22.04 С 10 10 км 9/0
[Cs]
+42.2 -3.0 6 +38 +38 очень
жарко
1002.9 954.6
18 22.04 С 4 6000 м пыль 9/0
[Cs]
+38.2 +1.5 10 +35 +35 очень
жарко
1004.5 955.7 +42.7

 

Местоположение метеостанции Zinder (Нигер): широта 13.78 долгота 8.98 высота над уровнем моря 453 м.

В архиве по умолчанию представлена погода в Zinder за последнюю неделю. Архивные данные за месяц целиком и за предыдущие месяцы, начиная с января 2011 года, Вы можете получить, выбрав интересующий диапазон дат из раскрывающегося списка и нажав кнопку "Ввод!".


*Определитесь, кто Вы:
робот инопланетянин человек

Внимание! Время в таблицах - всемирное. Для получения местного времени необходимо прибавить поправку, которая в Zinder равна 1 ч.

Смотрите также архив погоды в соседних городах и на ближайших метеорологических станциях:

Погода в Magaria (Нигер) (89 км)
Погода в Goure (Нигер) (144 км)
Погода в Cano (Нигерия) (199 км)
Погода в Maradi (Нигер) (208 км)
Погода в Maine-Soroa (Нигер) (330 км)
Погода в Agadez (Нигер) (371 км)
Погода в Birni-Nkonni (Нигер) (403 км)
Погода в Diffa (Нигер) (413 км)
Погода в Tahoua (Нигер) (421 км)
Погода в Nguigmi (Нигер) (450 км)

Пояснения к столбцам:

Ветер - указаны скорость ветра в м/с - средняя за 10 мин, порывы в срок и между сроками (в фигурных скобках) и направление, откуда дует ветер: С - северный, СВ - северо-восточный, В - восточный, ЮВ - юго-восточный, Ю - южный, ЮЗ - юго-западный, З - западный, СЗ - северо-западный.
Видимость - горизонтальная дальность видимости в метрах или километрах. При видимости от 1 до 10 км при отсутствии осадков обычно наблюдается дымка, при ухудшении видимости до 1 км и менее - туман. В сухую погоду видимость может ухудшаться дымом, пылью или мглою.
Явления - указаны атмосферные явления, наблюдавшиеся в срок или в последний час перед сроком; фигурными скобками обозначены явления, наблюдавшиеся между сроками (за 1-3 часа до срока); квадратными скобками обозначены град или гололедные отложения с указанием их диаметра в мм.
Облачность - указаны через наклонную черту общая и нижняя облачность в баллах и высота нижней границы облаков в метрах; квадратными скобками обозначены формы облаков: Ci - перистые, Cs - перисто-слоистые, Cc - перисто-кучевые, Ac - высококучевые, As - высокослоистые, Sc - слоисто-кучевые, Ns - слоисто-дождевые, Cu - кучевые, Cb - кучево-дождевые. Подробнее классификацию облаков см. в Атласе облаков (PDF).
T - Температура воздуха - температура, измеренная на высоте 2 м над землей.
Td - Температура точки росы - температура, при понижении до которой содержащийся в воздухе водяной пар достигнет насыщения.
f - Относительная влажность воздуха - влажноcть воздуха, измеренная на высоте 2 м над землей.
Te - Эффективная температура - температура, которую ощущает одетый по сезону человек в тени. Характеристика душности погоды. При расчете учитывается влияние влажности воздуха и скорости ветра на теплоощущения человека.
Tes - Эффективная температура на солнце - температура, которую ощущает человек, с поправкой на солнечный нагрев. Характеристика знойности погоды. Зависит от высоты солнца над горизонтом, облачности и скорости ветра. Ночью, в пасмурную погоду, а также при ветре 12 м/с и более поправка равна нулю.
P - Атмосферное давление - приведенное к уровню моря атмосферное давление.
Po - Атмосферное давление - измеренное на уровне метеостанции атмосферное давление.
Tmin - Минимальная температура - минимум температуры воздуха на высоте 2 м над землей.
Tmax - Максимальная температура - максимум температуры воздуха на высоте 2 м над землей.
R - Количество осадков - Количество выпавших осадков за период времени, мм. При наведении курсора мыши на число - период времени, за который выпало указанное количество осадков.
R24 - Количество осадков - Количество выпавших осадков за 24 часа, мм.
S - Снежный покров - Высота снежного покрова, см. При наведении курсора мыши на число - состояние снежного покрова и степень покрытия местности в баллах.